FDX1583 KMEM-KICT

Flight info

Callsign FDX1583
Flight time N/A
Altitude 30000
Route DUCKZ5 HELAR HUSKA
Aircraft A306/H-SDE3FGHIRWY/LB1

Departure

Time N/A
Airport Memphis International Airport (KMEM)

Arrival

Time 2026-04-29 19:19
Airport Wichita Dwight D. Eisenhower National Airport (KICT)
Time Latitude Longitude Altitude Speed Heading
2026-04-29 18:43 36.23308 -94.15567 30055 ft 377 kts 288°
2026-04-29 18:43 36.25362 -94.21489 30058 ft 377 kts 288°
2026-04-29 18:44 36.27426 -94.27452 30056 ft 377 kts 288°
2026-04-29 18:44 36.29490 -94.33426 30060 ft 377 kts 288°
2026-04-29 18:45 36.31550 -94.39400 30054 ft 377 kts 288°
2026-04-29 18:45 36.33606 -94.45374 30057 ft 377 kts 288°
2026-04-29 18:46 36.35646 -94.51315 30059 ft 377 kts 288°
2026-04-29 18:46 36.37696 -94.57296 30064 ft 377 kts 287°
2026-04-29 18:47 36.39746 -94.63289 30058 ft 377 kts 287°
2026-04-29 18:47 36.41791 -94.69277 30055 ft 377 kts 287°
2026-04-29 18:48 36.43834 -94.75274 30051 ft 377 kts 287°
2026-04-29 18:48 36.45861 -94.81234 30057 ft 377 kts 287°
2026-04-29 18:49 36.47898 -94.87241 30057 ft 377 kts 287°
2026-04-29 18:49 36.49930 -94.93244 30061 ft 377 kts 287°
2026-04-29 18:50 36.51960 -94.99248 30059 ft 377 kts 287°
2026-04-29 18:50 36.53975 -95.05219 30059 ft 377 kts 287°
2026-04-29 18:51 36.56002 -95.11237 30068 ft 377 kts 287°
2026-04-29 18:51 36.58023 -95.17257 30069 ft 377 kts 287°
2026-04-29 18:52 36.60044 -95.23284 30061 ft 377 kts 287°
2026-04-29 18:52 36.62050 -95.29277 30065 ft 378 kts 287°
2026-04-29 18:53 36.64066 -95.35313 30070 ft 378 kts 287°
2026-04-29 18:53 36.66081 -95.41358 30072 ft 378 kts 287°
2026-04-29 18:54 36.68092 -95.47403 30067 ft 378 kts 287°
2026-04-29 18:54 36.70086 -95.53412 30071 ft 378 kts 287°
2026-04-29 18:55 36.72089 -95.59462 30077 ft 378 kts 287°
2026-04-29 18:55 36.74090 -95.65515 30086 ft 378 kts 287°
2026-04-29 18:56 36.76087 -95.71572 30094 ft 377 kts 287°
2026-04-29 18:56 36.78066 -95.77583 30081 ft 377 kts 287°
2026-04-29 18:57 36.80056 -95.83639 30084 ft 377 kts 287°
2026-04-29 18:57 36.82040 -95.89693 30085 ft 377 kts 286°
2026-04-29 18:58 36.84021 -95.95750 30153 ft 377 kts 286°
2026-04-29 18:58 36.85666 -96.00785 30156 ft 377 kts 286°
2026-04-29 18:59 36.87962 -96.07821 29864 ft 372 kts 286°
2026-04-29 18:59 36.88928 -96.10777 29296 ft 363 kts 286°
2026-04-29 18:59 36.89871 -96.13664 28508 ft 358 kts 286°
2026-04-29 19:00 36.90807 -96.16556 27608 ft 360 kts 287°
2026-04-29 19:00 36.91744 -96.19459 26728 ft 361 kts 287°
2026-04-29 19:00 36.92367 -96.21391 26230 ft 360 kts 287°
2026-04-29 19:00 36.93297 -96.24266 25644 ft 354 kts 287°
2026-04-29 19:01 36.94509 -96.28001 24919 ft 346 kts 287°
2026-04-29 19:01 36.95409 -96.30781 24366 ft 344 kts 287°
2026-04-29 19:01 36.96303 -96.33555 23845 ft 344 kts 287°
2026-04-29 19:01 36.97197 -96.36333 23239 ft 344 kts 287°
2026-04-29 19:02 36.98089 -96.39106 22686 ft 343 kts 288°
2026-04-29 19:02 36.98677 -96.40936 22332 ft 343 kts 287°
2026-04-29 19:02 36.99565 -96.43697 21797 ft 342 kts 287°
2026-04-29 19:02 37.00452 -96.46454 21251 ft 341 kts 287°
2026-04-29 19:03 37.01334 -96.49201 20693 ft 340 kts 287°
2026-04-29 19:03 37.02499 -96.52830 19945 ft 338 kts 287°
2026-04-29 19:03 37.03373 -96.55560 19372 ft 338 kts 287°
2026-04-29 19:03 37.04244 -96.58284 18800 ft 337 kts 287°
2026-04-29 19:04 37.04831 -96.60121 18409 ft 337 kts 287°
2026-04-29 19:04 37.05687 -96.62805 17720 ft 336 kts 288°
2026-04-29 19:04 37.06556 -96.65531 17007 ft 337 kts 288°
2026-04-29 19:04 37.07420 -96.68246 16417 ft 335 kts 288°
2026-04-29 19:05 37.08281 -96.70949 15822 ft 333 kts 289°
2026-04-29 19:05 37.09138 -96.73644 15204 ft 332 kts 289°
2026-04-29 19:05 37.09994 -96.76335 14844 ft 337 kts 289°
2026-04-29 19:05 37.10871 -96.79103 14602 ft 346 kts 289°
2026-04-29 19:06 37.11761 -96.81910 14387 ft 347 kts 290°
2026-04-29 19:06 37.12639 -96.84677 14151 ft 346 kts 290°
2026-04-29 19:06 37.14398 -96.90224 13334 ft 337 kts 290°
2026-04-29 19:07 37.15259 -96.92941 12700 ft 334 kts 290°
2026-04-29 19:07 37.15826 -96.94733 12290 ft 333 kts 290°
2026-04-29 19:07 37.16963 -96.98336 11437 ft 331 kts 291°
2026-04-29 19:07 37.17808 -97.01016 10848 ft 330 kts 291°
2026-04-29 19:08 37.18645 -97.03672 10403 ft 323 kts 291°
2026-04-29 19:08 37.19453 -97.06238 10168 ft 310 kts 291°
2026-04-29 19:08 37.20316 -97.08604 9995 ft 296 kts 300°
2026-04-29 19:08 37.21485 -97.10656 9852 ft 283 kts 307°
2026-04-29 19:09 37.22720 -97.12538 9714 ft 277 kts 309°
2026-04-29 19:09 37.23966 -97.14377 9578 ft 277 kts 309°
2026-04-29 19:09 37.25218 -97.16205 9344 ft 272 kts 310°
2026-04-29 19:09 37.26443 -97.17981 9078 ft 268 kts 310°
2026-04-29 19:10 37.27663 -97.19746 8715 ft 267 kts 310°
2026-04-29 19:10 37.28882 -97.21507 8345 ft 266 kts 311°
2026-04-29 19:10 37.30081 -97.23238 7985 ft 266 kts 311°
2026-04-29 19:10 37.31289 -97.24983 7614 ft 265 kts 311°
2026-04-29 19:11 37.32498 -97.26731 7258 ft 264 kts 312°
2026-04-29 19:11 37.33699 -97.28467 6900 ft 263 kts 312°
2026-04-29 19:11 37.34900 -97.30203 6537 ft 263 kts 313°
2026-04-29 19:11 37.36097 -97.31932 6156 ft 262 kts 313°
2026-04-29 19:12 37.37294 -97.33663 5795 ft 262 kts 313°
2026-04-29 19:12 37.38482 -97.35383 5438 ft 260 kts 313°
2026-04-29 19:12 37.39672 -97.37106 5079 ft 261 kts 314°
2026-04-29 19:12 37.40458 -97.38245 4855 ft 260 kts 314°
2026-04-29 19:13 37.42027 -97.40518 4398 ft 259 kts 314°
2026-04-29 19:13 37.43187 -97.42201 4172 ft 249 kts 314°
2026-04-29 19:13 37.44282 -97.43797 3996 ft 234 kts 314°
2026-04-29 19:13 37.45315 -97.45309 3828 ft 223 kts 314°
2026-04-29 19:14 37.46314 -97.46763 3548 ft 215 kts 314°
2026-04-29 19:14 37.47272 -97.48151 3114 ft 204 kts 314°
2026-04-29 19:14 37.48229 -97.49355 2986 ft 186 kts 326°
2026-04-29 19:14 37.49322 -97.50106 3009 ft 179 kts 344°
2026-04-29 19:15 37.50531 -97.50331 3010 ft 175 kts
2026-04-29 19:15 37.51714 -97.50033 3015 ft 173 kts 18°
2026-04-29 19:15 37.52849 -97.49528 2994 ft 174 kts 21°
2026-04-29 19:15 37.53962 -97.48997 3000 ft 161 kts 21°
2026-04-29 19:16 37.54919 -97.48546 2988 ft 137 kts 20°
2026-04-29 19:16 37.55795 -97.48138 2979 ft 132 kts 21°
2026-04-29 19:16 37.56662 -97.47740 2997 ft 132 kts 20°
2026-04-29 19:16 37.57528 -97.47345 2999 ft 133 kts 20°
2026-04-29 19:17 37.58386 -97.46952 3001 ft 133 kts 21°
2026-04-29 19:17 37.59279 -97.46541 2687 ft 145 kts 20°
2026-04-29 19:17 37.60237 -97.46114 2203 ft 143 kts 21°
2026-04-29 19:17 37.61148 -97.45680 1893 ft 133 kts 23°
2026-04-29 19:18 37.62015 -97.45276 1668 ft 131 kts 22°
2026-04-29 19:18 37.62583 -97.45020 1520 ft 130 kts 22°
2026-04-29 19:18 37.63727 -97.44495 1335 ft 130 kts 20°
2026-04-29 19:18 37.64460 -97.44163 1344 ft 89 kts 19°
2026-04-29 19:19 37.64884 -97.43971 1336 ft 42 kts 20°
2026-04-29 19:19 37.65131 -97.43859 1343 ft 35 kts 20°
2026-04-29 19:19 37.65344 -97.43760 1349 ft 30 kts 20°
2026-04-29 19:19 37.65537 -97.43672 1346 ft 29 kts 19°
2026-04-29 19:20 37.65670 -97.43566 1344 ft 19 kts 59°
2026-04-29 19:20 37.65710 -97.43465 1344 ft 7 kts 86°
2026-04-29 19:20 37.65697 -97.43394 1341 ft 9 kts 104°
2026-04-29 19:20 37.65716 -97.43333 1344 ft 7 kts 36°
2026-04-29 19:21 37.65758 -97.43312 1342 ft 6 kts 20°
2026-04-29 19:21 37.65796 -97.43294 1342 ft 5 kts 20°
2026-04-29 19:21 37.65829 -97.43279 1341 ft 4 kts 20°
2026-04-29 19:21 37.65838 -97.43269 1346 ft 2 kts 50°
2026-04-29 19:22 37.65839 -97.43243 1343 ft 4 kts 97°
2026-04-29 19:22 37.65835 -97.43223 1344 ft 2 kts 104°
2026-04-29 19:22 37.65833 -97.43215 1344 ft 0 kts 106°